Погода в Чукалах

Россия / Республика Мордовия     55°02′23″N   45°31′04″E
темп.,
°C
ветер,
м/с
пор.,
м/с
влажн.,
%
обл.,
%
осадки,
мм/ч
давл.,
гПа
погр.,
м
7 марта, вс
вс700:00−14з239420 0.0 101320
03:00−16з239638 0.0 101320
06:00−17юз34950 0.0 101236
09:00−13юз499647 0.0 1011271
12:00−9ююз6118898 0.0 1008606
15:00−7ююз8149199 0.1 1003895
18:00−6ююз81593100 1.0 10001011
21:00−5ююз81593100 1.9 996949
8 марта, пн
пн800:00−4юз71495100 0.8 994850
03:00−8сз51185100 1.6 994361
06:00−14зюз348533 0.0 99669
09:00−9юз599451 0.1 999343
12:00−6юз5890100 0.1 998677
15:00−5юз5887100 0.2 998836
18:00−6зюз3896100 0.4 998312
21:00−8з51095100 0.7 1001369
9 марта, вт
вт900:00−13зсз499899 0.1 1003173
03:00−16зсз479998 0.2 1005118
06:00−17зсз4899100 0.1 1007163
09:00−17сз479695 0.1 1010256
12:00−15сз479394 0.0 1011358
15:00−13сз479095 0.0 1012516
18:00−17сз3597100 0.0 101388
21:00−20сз3410096 0.1 101685
10 марта, ср
ср1000:00−21сз3610092 0.0 101697
03:00−23сз3610094 0.1 101790
06:00−24сз4810099 0.0 1019168
09:00−24ссз4898100 0.1 1020273
12:00−22сз479595 0.0 1022347
15:00−21сз579393 0.0 1022427
18:00−24сз459658 0.0 102390
21:00−26зсз349729 0.0 102545
11 марта, чт
чт1100:00−25з349723 0.0 102563
03:00−25з479523 0.0 102699
06:00−26з47950 0.0 1026119
09:00−21з47930 0.0 1027240
12:00−16з47870 0.0 1027329
15:00−12з47840 0.0 1026420
18:00−17юз34910 0.0 102641
21:00−20ююз34910 0.0 102768